Location: Ferchesar
(52.6477°N, 12.4298°E)
Time: 02:41:01
(UTC+01:00)

BUGSAT 1 - Pass Details

Date: 28 October 2021
Orbit: 558 x 600 km, 98.1° (Epoch: 03 December)

Event Time Altitude Azimuth Distance (km) Brightness Sun altitude
Rises 18:21:19 0° 211° (SSW) 2,758 ? -5.7°
Reaches altitude 10° 18:24:18 10° 236° (SW) 1,860 ? -6.1°
Maximum altitude 18:26:35 15° 271° (W) 1,577 ? -6.5°
Drops below altitude 10° 18:28:53 10° 306° (NW) 1,861 ? -6.8°
Sets 18:31:53 0° 331° (NNW) 2,760 ? -7.3°
